TimeCDT,TemperatureF,Dew PointF,Humidity,Sea Level PressureIn,VisibilityMPH,Wind Direction,Wind SpeedMPH,Gust SpeedMPH,PrecipitationIn,Events,Conditions,WindDirDegrees,DateUTC
12:13 AM,33.8,32.0,93,30.00,10.0,North,4.6,-,N/A,,Clear,350,2013-10-21 05:13:00
12:33 AM,33.8,30.2,87,30.00,10.0,NNW,4.6,-,N/A,,Clear,330,2013-10-21 05:33:00
12:53 AM,32.0,28.4,87,30.00,10.0,WNW,5.8,-,N/A,,Clear,300,2013-10-21 05:53:00
1:13 AM,32.0,28.4,87,30.01,10.0,NW,5.8,-,N/A,,Scattered Clouds,310,2013-10-21 06:13:00
1:33 AM,32.0,28.4,87,30.01,10.0,WNW,4.6,-,N/A,,Mostly Cloudy,300,2013-10-21 06:33:00
1:53 AM,32.0,30.2,93,30.01,10.0,NNW,4.6,-,N/A,,Overcast,330,2013-10-21 06:53:00
2:12 AM,33.8,28.4,81,30.01,10.0,NW,4.6,-,N/A,,Overcast,310,2013-10-21 07:12:00
2:33 AM,32.0,30.2,93,30.02,10.0,WNW,4.6,-,N/A,,Overcast,300,2013-10-21 07:33:00
2:53 AM,32.0,32.0,100,30.02,10.0,WNW,4.6,-,N/A,,Overcast,300,2013-10-21 07:53:00
3:13 AM,33.8,32.0,93,30.02,10.0,West,5.8,-,N/A,,Overcast,280,2013-10-21 08:13:00
3:33 AM,32.0,30.2,93,30.02,10.0,West,4.6,-,N/A,,Overcast,280,2013-10-21 08:33:00
3:52 AM,33.8,30.2,87,30.02,10.0,West,6.9,-,N/A,,Overcast,280,2013-10-21 08:52:00
4:13 AM,33.8,30.2,87,30.02,10.0,WNW,5.8,-,N/A,,Overcast,290,2013-10-21 09:13:00
4:33 AM,33.8,30.2,87,30.02,10.0,West,4.6,-,N/A,,Overcast,280,2013-10-21 09:33:00
4:52 AM,33.8,30.2,87,30.02,10.0,West,6.9,-,N/A,,Overcast,260,2013-10-21 09:52:00
5:13 AM,33.8,30.2,87,30.02,10.0,West,6.9,-,N/A,,Overcast,260,2013-10-21 10:13:00
5:33 AM,33.8,30.2,87,30.02,10.0,West,6.9,-,N/A,,Overcast,260,2013-10-21 10:33:00
5:53 AM,33.8,30.2,87,30.02,10.0,West,6.9,-,N/A,,Overcast,270,2013-10-21 10:53:00
6:13 AM,33.8,30.2,87,30.02,10.0,West,6.9,-,N/A,,Overcast,270,2013-10-21 11:13:00
6:33 AM,33.8,30.2,87,30.02,10.0,West,5.8,-,N/A,,Overcast,270,2013-10-21 11:33:00
6:53 AM,33.8,30.2,87,30.02,10.0,West,6.9,-,N/A,,Overcast,260,2013-10-21 11:53:00
7:13 AM,33.8,30.2,87,30.02,10.0,WSW,6.9,-,N/A,,Overcast,250,2013-10-21 12:13:00
7:33 AM,33.8,30.2,87,30.01,10.0,West,8.1,-,N/A,,Overcast,260,2013-10-21 12:33:00
7:53 AM,33.8,30.2,87,30.02,10.0,WSW,9.2,-,N/A,,Overcast,250,2013-10-21 12:53:00
8:13 AM,33.8,30.2,87,30.01,10.0,WSW,9.2,-,N/A,,Overcast,250,2013-10-21 13:13:00
8:33 AM,33.8,30.2,87,30.02,10.0,WSW,6.9,-,N/A,,Overcast,240,2013-10-21 13:33:00
8:53 AM,35.6,30.2,81,30.02,10.0,West,8.1,-,N/A,,Mostly Cloudy,260,2013-10-21 13:53:00
9:12 AM,35.6,30.2,81,30.02,10.0,West,10.4,-,N/A,,Overcast,270,2013-10-21 14:12:00
9:33 AM,35.6,32.0,87,30.02,10.0,WNW,10.4,-,N/A,,Mostly Cloudy,300,2013-10-21 14:33:00
9:53 AM,37.4,32.0,81,30.02,10.0,WNW,12.7,-,N/A,,Scattered Clouds,290,2013-10-21 14:53:00
10:12 AM,39.2,30.2,70,30.02,10.0,NW,11.5,-,N/A,,Clear,310,2013-10-21 15:12:00
10:33 AM,39.2,28.4,65,30.02,10.0,NW,12.7,16.1,N/A,,Scattered Clouds,320,2013-10-21 15:33:00
10:53 AM,41.0,28.4,61,30.02,10.0,NW,11.5,18.4,N/A,,Mostly Cloudy,310,2013-10-21 15:53:00
11:12 AM,41.0,26.6,57,30.02,10.0,WNW,13.8,20.7,N/A,,Overcast,300,2013-10-21 16:12:00
11:33 AM,41.0,26.6,57,30.01,10.0,NW,13.8,19.6,N/A,,Mostly Cloudy,320,2013-10-21 16:33:00
11:53 AM,41.0,28.4,61,30.01,10.0,NW,11.5,-,N/A,,Mostly Cloudy,310,2013-10-21 16:53:00
12:12 PM,42.8,28.4,57,30.01,10.0,NW,9.2,-,N/A,,Overcast,310,2013-10-21 17:12:00
12:33 PM,42.8,28.4,57,30.00,10.0,NW,12.7,-,N/A,,Overcast,310,2013-10-21 17:33:00
12:53 PM,44.6,28.4,53,30.00,10.0,West,12.7,21.9,N/A,,Overcast,280,2013-10-21 17:53:00
1:12 PM,44.6,28.4,53,29.99,10.0,NW,9.2,20.7,N/A,,Overcast,310,2013-10-21 18:12:00
1:33 PM,46.4,28.4,50,29.99,10.0,West,13.8,19.6,N/A,,Overcast,270,2013-10-21 18:33:00
1:53 PM,44.6,28.4,53,29.98,10.0,WNW,13.8,19.6,N/A,,Overcast,300,2013-10-21 18:53:00
2:13 PM,44.6,28.4,53,29.97,10.0,WNW,13.8,-,N/A,,Mostly Cloudy,290,2013-10-21 19:13:00
2:33 PM,44.6,28.4,53,29.97,10.0,West,17.3,25.3,N/A,,Overcast,280,2013-10-21 19:33:00
2:53 PM,44.6,28.4,53,29.96,10.0,WNW,13.8,18.4,N/A,,Mostly Cloudy,300,2013-10-21 19:53:00
3:13 PM,48.2,26.6,43,29.96,10.0,WNW,13.8,21.9,N/A,,Mostly Cloudy,290,2013-10-21 20:13:00
3:33 PM,50.0,26.6,40,29.95,10.0,WNW,16.1,21.9,N/A,,Mostly Cloudy,300,2013-10-21 20:33:00
3:53 PM,50.0,26.6,40,29.95,10.0,WNW,13.8,20.7,N/A,,Mostly Cloudy,290,2013-10-21 20:53:00
4:13 PM,50.0,24.8,37,29.95,10.0,WNW,16.1,20.7,N/A,,Mostly Cloudy,290,2013-10-21 21:13:00
4:33 PM,46.4,26.6,46,29.95,10.0,WNW,11.5,-,N/A,,Scattered Clouds,300,2013-10-21 21:33:00
4:53 PM,46.4,26.6,46,29.95,10.0,WNW,9.2,-,N/A,,Mostly Cloudy,300,2013-10-21 21:53:00
5:13 PM,46.4,28.4,50,29.95,10.0,WNW,9.2,-,N/A,,Overcast,290,2013-10-21 22:13:00
5:33 PM,46.4,28.4,50,29.95,10.0,WNW,8.1,-,N/A,,Overcast,300,2013-10-21 22:33:00
5:53 PM,46.4,30.2,53,29.94,10.0,NW,6.9,-,N/A,,Overcast,310,2013-10-21 22:53:00
6:13 PM,46.4,30.2,53,29.94,10.0,NW,4.6,-,N/A,,Overcast,320,2013-10-21 23:13:00
6:33 PM,44.6,30.2,57,29.93,10.0,Calm,Calm,-,N/A,,Overcast,0,2013-10-21 23:33:00
6:53 PM,44.6,30.2,57,29.94,10.0,WNW,3.5,-,N/A,,Overcast,300,2013-10-21 23:53:00
7:13 PM,44.6,32.0,61,29.94,10.0,WNW,3.5,-,N/A,,Overcast,290,2013-10-22 00:13:00
7:33 PM,42.8,32.0,66,29.93,7.0,Calm,Calm,-,N/A,,Mostly Cloudy,0,2013-10-22 00:33:00
7:53 PM,42.8,32.0,66,29.93,10.0,Calm,Calm,-,N/A,,Overcast,0,2013-10-22 00:53:00
8:13 PM,41.0,32.0,70,29.94,10.0,NNE,4.6,-,N/A,,Overcast,30,2013-10-22 01:13:00
8:33 PM,42.8,32.0,66,29.93,10.0,NNE,3.5,-,N/A,,Overcast,30,2013-10-22 01:33:00
8:53 PM,41.0,32.0,70,29.94,10.0,Calm,Calm,-,N/A,,Overcast,0,2013-10-22 01:53:00
9:13 PM,41.0,32.0,70,29.94,10.0,Calm,Calm,-,N/A,,Overcast,0,2013-10-22 02:13:00
9:33 PM,41.0,32.0,70,29.94,10.0,Calm,Calm,-,N/A,,Overcast,0,2013-10-22 02:33:00
9:53 PM,41.0,32.0,70,29.94,10.0,NE,3.5,-,N/A,,Overcast,40,2013-10-22 02:53:00
10:13 PM,39.2,32.0,75,29.94,10.0,NE,3.5,-,N/A,,Overcast,50,2013-10-22 03:13:00
10:33 PM,39.2,30.2,70,29.95,10.0,ENE,4.6,-,N/A,,Overcast,60,2013-10-22 03:33:00
10:53 PM,39.2,30.2,70,29.94,10.0,ENE,5.8,-,N/A,,Overcast,60,2013-10-22 03:53:00
11:13 PM,39.2,30.2,70,29.94,10.0,ENE,4.6,-,N/A,,Overcast,60,2013-10-22 04:13:00
11:33 PM,39.2,28.4,65,29.94,10.0,ENE,4.6,-,N/A,,Overcast,60,2013-10-22 04:33:00
11:53 PM,37.4,30.2,75,29.94,10.0,NE,5.8,-,N/A,,Overcast,50,2013-10-22 04:53:00